Weather History for Meadville, PA

Change the Weather History Date:

Wednesday, March 26, 2014

  Actual Average Record
Temperature  
Mean Temperature 15 °F -  
Max Temperature 21 °F 48 °F 75 °F (1986)
Min Temperature 9 °F 25 °F 5 °F (1974)
Degree Days  
Heating Degree Days 50    
Moisture  
Dew Point 9 °F    
Average Humidity 71    
Maximum Humidity 93    
Minimum Humidity 50    
Precipitation  
Precipitation 0.01 in - - ()
Sea Level Pressure  
Sea Level Pressure 30.16 in    
Wind  
Wind Speed 7 mph (NW)    
Max Wind Speed 14 mph    
Max Gust Speed 23 mph    
Visibility 7 miles    
Events Fog , Snow    
Averages and records for this station are not official NWS values.
T = Trace of Precipitation, MM = Missing Value Source: NWS Daily Summary

Daily Weather History Graph

Daily Weather History Graph

Search for Another Location

Airport:

Trip Planner

Search our weather history database for the weather conditions in past years. The results will help you decide how hot, cold, wet, or windy it might be!

Date:

Astronomy

Mar. 26, 2014 Rise Set
Actual Time 7:13 AM EDT 7:39 PM EDT
Civil Twilight 6:46 AM EDT 8:07 PM EDT
Nautical Twilight 6:13 AM EDT 8:40 PM EDT
Astronomical Twilight 5:39 AM EDT 9:14 PM EDT
Moon 4:24 AM EDT (3/26) 3:13 PM EDT (3/26)
Length of Visible Light 13h 21m
Length of Day
12h 25m
Waning Crescent, 22% of the Moon is Illuminated
Mar 26
Waning Crescent
Mar 30
New
Apr 7
First Quarter
Apr 15
Full
Apr 22
Last Quarter

Hourly Weather History & Observations

Time (EDT) Temp. Windchill Dew Point Humidity Pressure Visibility Wind Dir Wind Speed Gust Speed Precip Events Conditions
12:14 AM 19.4 °F - 17.6 °F 93% 29.96 in 2.5 mi Calm Calm - 0.00 in Snow Light Snow
12:22 AM 21.2 °F - 17.6 °F 86% 29.97 in 1.2 mi Calm Calm - 0.00 in Snow Light Snow
12:24 AM 21.2 °F 16.4 °F 17.6 °F 86% 29.97 in 0.8 mi North 3.5 mph - 0.00 in Snow Light Snow
12:34 AM 21.2 °F 12.6 °F 17.6 °F 86% 29.97 in 0.2 mi WNW 6.9 mph - 0.00 in Fog , Snow Snow
12:39 AM 21.2 °F 10.1 °F 17.6 °F 86% 29.97 in 0.5 mi WNW 10.4 mph 20.7 mph 0.00 in Fog , Snow Light Snow
12:50 AM 21.2 °F 8.9 °F 15.8 °F 80% 29.98 in 2.0 mi NW 12.7 mph 18.4 mph 0.01 in Snow Light Snow
12:51 AM 21.0 °F 9.9 °F 16.0 °F 81% 30.02 in 2.0 mi NW 10.4 mph 18.4 mph 0.01 in Snow Light Snow
1:00 AM 19.4 °F 7.9 °F 15.8 °F 86% 29.98 in 5.0 mi NW 10.4 mph - 0.00 in   Mostly Cloudy
1:32 AM 19.4 °F 6.6 °F 15.8 °F 86% 29.99 in 1.8 mi NW 12.7 mph - 0.00 in Snow Light Snow
1:53 AM 18.0 °F 4.2 °F 12.9 °F 81% 30.06 in 1.0 mi North 13.8 mph 23.0 mph 0.00 in Snow Light Snow
2:06 AM 17.6 °F 4.3 °F 10.4 °F 73% 30.02 in 1.8 mi NNW 12.7 mph 19.6 mph 0.00 in Snow Light Snow
2:53 AM 16.0 °F 4.4 °F 10.9 °F 81% 30.09 in 2.0 mi North 9.2 mph 18.4 mph 0.00 in   Haze
3:24 AM 15.8 °F 2.7 °F 8.6 °F 73% 30.04 in 4.0 mi North 11.5 mph 20.7 mph 0.00 in   Haze
3:36 AM 14.0 °F 2.0 °F 8.6 °F 79% 30.05 in 2.0 mi North 9.2 mph - 0.00 in Snow Light Snow
3:46 AM 14.0 °F 0.5 °F 8.6 °F 79% 30.05 in 5.0 mi NNW 11.5 mph 17.3 mph 0.00 in   Haze
3:53 AM 14.0 °F 2.0 °F 8.1 °F 77% 30.11 in 9.0 mi North 9.2 mph 16.1 mph 0.00 in   Mostly Cloudy
4:10 AM 12.2 °F -0.2 °F 6.8 °F 79% 30.06 in 8.0 mi North 9.2 mph - N/A   Scattered Clouds
4:42 AM 12.2 °F 2.9 °F 6.8 °F 79% 30.07 in 6.0 mi North 5.8 mph - N/A   Haze
4:53 AM 12.0 °F 0.5 °F 5.0 °F 73% 30.14 in 9.0 mi NNW 8.1 mph - N/A   Scattered Clouds
5:53 AM 10.9 °F 0.2 °F 1.0 °F 64% 30.17 in 10.0 mi NNW 6.9 mph - N/A   Clear
6:53 AM 9.0 °F -0.9 °F 1.0 °F 70% 30.19 in 10.0 mi NW 5.8 mph - N/A   Clear
7:53 AM 9.0 °F -0.9 °F 1.9 °F 73% 30.24 in 10.0 mi NW 5.8 mph - N/A   Clear
8:53 AM 12.0 °F 0.5 °F 3.0 °F 67% 30.26 in 10.0 mi NW 8.1 mph - N/A   Clear
9:53 AM 12.9 °F 0.7 °F 1.9 °F 62% 30.28 in 10.0 mi NNW 9.2 mph - N/A   Partly Cloudy
10:20 AM 15.8 °F 5.1 °F 5.0 °F 62% 30.23 in 10.0 mi WNW 8.1 mph - N/A   Mostly Cloudy
10:53 AM 15.1 °F 1.8 °F 3.0 °F 59% 30.30 in 10.0 mi WNW 11.5 mph 17.3 mph N/A   Mostly Cloudy
11:53 AM 17.1 °F 4.3 °F 3.0 °F 54% 30.30 in 10.0 mi NW 11.5 mph 18.4 mph N/A   Mostly Cloudy
12:53 PM 18.0 °F 4.8 °F 5.0 °F 57% 30.31 in 10.0 mi West 12.7 mph - N/A   Overcast
1:53 PM 19.9 °F 9.3 °F 3.9 °F 50% 30.31 in 10.0 mi NW 9.2 mph 19.6 mph N/A   Overcast
2:53 PM 21.0 °F 9.3 °F 6.1 °F 53% 30.30 in 10.0 mi NW 11.5 mph 17.3 mph N/A   Partly Cloudy
3:53 PM 19.9 °F 9.3 °F 6.1 °F 55% 30.31 in 10.0 mi WNW 9.2 mph 20.7 mph N/A   Overcast
4:53 PM 19.9 °F 7.9 °F 6.1 °F 55% 30.30 in 10.0 mi NNW 11.5 mph - N/A   Mostly Cloudy
5:53 PM 19.9 °F 10.1 °F 7.0 °F 57% 30.30 in 10.0 mi West 8.1 mph - N/A   Scattered Clouds
6:53 PM 21.0 °F 12.4 °F 8.1 °F 57% 30.30 in 10.0 mi NW 6.9 mph - N/A   Mostly Cloudy
7:53 PM 19.0 °F 12.3 °F 7.0 °F 59% 30.31 in 10.0 mi West 4.6 mph - N/A   Clear
8:53 PM 18.0 °F - 7.0 °F 62% 30.32 in 10.0 mi Calm Calm - N/A   Clear
9:53 PM 17.1 °F - 7.0 °F 65% 30.32 in 10.0 mi Calm Calm - N/A   Clear
10:53 PM 17.1 °F - 8.1 °F 68% 30.32 in 10.0 mi Calm Calm - N/A   Clear
11:53 PM 17.1 °F - 8.1 °F 68% 30.32 in 10.0 mi Calm Calm - N/A   Clear